Location: Bukit Nyuki
(2.5885°N, 113.7476°E)
Time: 06:47:06
(UTC+00:00)

Ariane H10-3 - Pass Details

Date: 18 May 2021
Orbit: 304 x 28648 km, 7.1° (Epoch: 22 June)

Event Time Altitude Azimuth Distance (km) Brightness Sun altitude
Rises 12:32:30 0° 280° (W) 3,040 6.7 -29.6°
Reaches altitude 10° 12:33:50 10° 282° (WNW) 2,496 6.0 -29.9°
Maximum altitude 12:39:17 80° 9° (N) 1,857 4.3 -31.1°
Enters shadow 12:46:49 41° 89° (E) 4,460 5.8 -32.8°
Exits shadow 13:23:47 14° 95° (E) 15,710 8.7 -41.0°
Drops below altitude 10° 19:24:42 10° 98° (E) 20,676 10.2 -39.8°
Sets 19:46:44 0° 96° (E) 17,611 10.1 -34.9°
